Location: Utrecht
(52.0907°N, 5.1214°E)
Time: 13:57:09
(UTC+02:00)

ESTCUBE 1 - Pass Details

Date: 26 June 2022
Orbit: 646 x 657 km, 97.9° (Epoch: 11 August)

Event Time Altitude Azimuth Distance (km) Brightness Sun altitude
Exits shadow 00:06:43 12° 189° (S) 1,885 ? -11.7°
Maximum altitude 00:10:36 46° 261° (W) 869 ? -11.9°
Drops below altitude 10° 00:14:56 10° 335° (NNW) 2,061 ? -12.2°
Sets 00:17:14 0° 342° (NNW) 2,977 ? -12.3°
